Location: Newark
(45.9608°N, 0.8222°W)
Time: 14:29:07
(UTC+00:00)

Envisat - Visible Passes

Search period start: 29 September 2020 00:00
Search period end: 09 October 2020 00:00
Orbit: 764 x 766 km, 98.1° (Epoch: 29 September)

Date Brightness Start Highest point End Pass type
(mag) Time Alt. Az. Time Alt. Az. Time Alt. Az.
30 Sep 5.3 05:24:50 10° NNE 05:29:20 31° E 05:33:48 10° SSE visible
30 Sep 6.0 18:21:54 10° SW 18:25:46 22° W 18:29:40 10° NW visible
01 Oct 6.2 04:49:19 10° NE 04:52:09 15° E 04:54:57 10° ESE visible
02 Oct 6.5 18:49:20 10° WSW 18:51:32 13° W 18:53:44 10° WNW visible
03 Oct 5.7 05:13:42 10° NE 05:17:52 25° E 05:22:01 10° SSE visible
03 Oct 5.5 18:10:02 10° SSW 18:14:18 27° W 18:18:36 10° NW visible
04 Oct 6.5 04:38:56 10° ENE 04:40:38 12° E 04:42:19 10° ESE visible
05 Oct 6.2 18:36:55 10° SW 18:40:01 16° W 18:43:07 10° NW visible
06 Oct 6.0 05:02:41 10° NE 05:06:23 20° E 05:10:05 10° SE visible
06 Oct 5.1 17:58:17 10° SSW 18:02:51 33° W 18:07:27 10° NNW visible
08 Oct 5.1 05:27:28 10° NNE 05:32:04 33° E 05:36:38 10° SSE visible
08 Oct 6.0 18:24:49 10° SW 18:28:31 20° W 18:32:14 10° NW visible
